ONEWEB-0144 (47290 NORAD) Tracking and Keplerian Element Data
This shows tracking and keplerian element data for the satellite.
Feedback or suggestion? Click here.
Element | Value |
Catalog | 47290 |
Name | ONEWEB-0144 |
Epoch Orbit | 172 |
Epoch Day | 60.91667824 |
Epoch Year | 2021 |
RAAN | 16.0132 |
Inclination | 87.5543 |
Eccentricity | 0.0010921 |
Argument of Perigee | 43.4434 |
Mean Anonmoly | 217.2103 |
Mean Motion | 13.92873258 |
Decay Rate | 1.6E-07 |
L1 | 1 47290U 20100AJ 21060.91667824 .00000016 00000-0 00000-0 0 9994 |
L2 | 2 47290 87.5543 16.0132 0010921 43.4434 217.2103 13.92873258 1728 |
Live tracking and technical data element details for ONEWEB-0144 (NORAD 47290). ONEWEB-0144 can be tracked NOW for your location showing map with azimuth and elevation plus other details from your city location.
Track the satellite on the map from your city or location and see movement details for azimuth, elevation, latitude, longitude, range, height, and movement on the map or in text.
IsCatalogInMostPopularTable: catalog: 47290, numindb: 23
Update: records affected: 1
GetName: 47290 ONEWEB-0144
Hit Count: updated at: Tue, 02 Mar 2021 14:10:31 GMT